カタログに戻る

COSMOS 2251 DEB

運用中LEO
NORAD 35032·DEBRIS·🇷🇺 Russia

打ち上げ Jun 16, 1993 から Plesetsk Cosmodrome

Loading…

次のパス (今後24時間)

TLE

最新Source: Space-Track

元期: Sep 13, 2026, 13:51 UTC

1 35032U 93036AGV 26256.57760205  .00003024  00000-0  60968-3 0  9998
2 35032  73.8506 197.0201 0065068 348.5239 186.2435 14.60624942916848

AllMySatでCOSMOS 2251 DEBをリアルタイム追跡

Download on the App Store